| time (UTC) | temp C | wind direction | speed KPH | gust KPH | rain 1hr cm | rain 24hr cm | rain mn cm | humidity % | barometer mb |
| 20260510014607 | 10 | 146 | 3.2 | 22.5 | 0.00 | 0.15 | 0.08 | 100 | 1011.9 |
| 20260510013056 | 10 | 272 | 3.2 | 17.7 | 0.00 | 0.15 | 0.08 | 100 | 1012.1 |
| 20260510011600 | 9 | 142 | 4.8 | 17.7 | 0.00 | 0.15 | 0.08 | 100 | 1012.0 |
| 20260510004558 | 9 | 124 | 3.2 | 14.5 | 0.00 | 0.13 | 0.08 | 100 | 1012.4 |
| 20260510003101 | 10 | 100 | 3.2 | 11.3 | 0.00 | 0.13 | 0.08 | 100 | 1012.6 |
| 20260510001556 | 10 | 90 | 3.2 | 6.4 | 0.00 | 0.13 | 0.08 | 100 | 1013.0 |
| 20260510000058 | 10 | 70 | 1.6 | 6.4 | 0.03 | 0.13 | 0.08 | 100 | 1013.1 |
| 20260509234608 | 10 | 81 | 3.2 | 14.5 | 0.00 | 0.10 | 0.05 | 100 | 1013.3 |
| 20260509233053 | 10 | 125 | 0.0 | 4.8 | 0.03 | 0.10 | 0.05 | 100 | 1013.6 |
| 20260509231556 | 10 | 111 | 1.6 | 6.4 | 0.03 | 0.10 | 0.05 | 100 | 1013.7 |
| 20260509224553 | 10 | 68 | 1.6 | 8.0 | 0.08 | 0.08 | 0.03 | 100 | 1013.8 |
| 20260509223059 | 10 | 102 | 1.6 | 6.4 | 0.08 | 0.08 | 0.00 | 100 | 1013.8 |
| 20260509221555 | 10 | 180 | 1.6 | 16.1 | 0.08 | 0.08 | 0.00 | 100 | 1013.9 |
| 20260509220104 | 10 | 160 | 3.2 | 12.9 | 0.05 | 0.05 | 0.00 | 100 | 1013.8 |
| 20260509214558 | 10 | 128 | 3.2 | 19.3 | 0.00 | 0.00 | 0.00 | 100 | 1013.8 |
| 20260509213104 | 10 | 0 | 3.2 | 16.1 | 0.00 | 0.00 | 0.00 | 100 | 1013.7 |
| 20260509211604 | 10 | 87 | 3.2 | 11.3 | 0.00 | 0.00 | 0.00 | 100 | 1013.6 |
| 20260509210101 | 11 | 0 | 3.2 | 14.5 | 0.00 | 0.00 | 0.00 | 99 | 1013.6 |
| 20260509204600 | 11 | 130 | 3.2 | 12.9 | 0.00 | 0.00 | 0.00 | 96 | 1013.6 |
| 20260509203101 | 11 | 244 | 4.8 | 16.1 | 0.00 | 0.00 | 0.00 | 93 | 1013.4 |
| 20260509201556 | 11 | 163 | 4.8 | 20.9 | 0.00 | 0.00 | 0.00 | 89 | 1013.2 |
| 20260509200057 | 11 | 18 | 6.4 | 14.5 | 0.00 | 0.00 | 0.00 | 88 | 1013.1 |
| 20260509194559 | 11 | 107 | 6.4 | 17.7 | 0.00 | 0.00 | 0.00 | 87 | 1012.7 |
| 20260509193058 | 11 | 0 | 4.8 | 20.9 | 0.00 | 0.00 | 0.00 | 87 | 1012.5 |
| 20260509191609 | 11 | 163 | 8.0 | 17.7 | 0.00 | 0.00 | 0.00 | 88 | 1012.3 |
| 20260509190100 | 11 | 44 | 9.7 | 19.3 | 0.00 | 0.00 | 0.00 | 88 | 1012.2 |
| 20260509184558 | 11 | 182 | 6.4 | 22.5 | 0.00 | 0.00 | 0.00 | 88 | 1012.7 |
| 20260509183057 | 11 | 207 | 11.3 | 29.0 | 0.00 | 0.00 | 0.00 | 88 | 1012.7 |
| 20260509181605 | 12 | 131 | 11.3 | 25.7 | 0.00 | 0.00 | 0.00 | 89 | 1012.2 |
| 20260509180101 | 12 | 191 | 9.7 | 27.4 | 0.00 | 0.00 | 0.00 | 89 | 1012.4 |
| 20260509174604 | 12 | 156 | 4.8 | 20.9 | 0.00 | 0.00 | 0.00 | 88 | 1012.6 |
| 20260509173112 | 12 | 167 | 4.8 | 11.3 | 0.00 | 0.00 | 0.00 | 87 | 1012.2 |
| 20260509171601 | 12 | 118 | 4.8 | 17.7 | 0.00 | 0.00 | 0.00 | 87 | 1011.9 |
| 20260509170100 | 12 | 154 | 6.4 | 14.5 | 0.00 | 0.00 | 0.00 | 87 | 1011.9 |
| 20260509164554 | 12 | 159 | 6.4 | 17.7 | 0.00 | 0.00 | 0.00 | 88 | 1011.8 |
| 20260509163108 | 12 | 228 | 6.4 | 32.2 | 0.00 | 0.00 | 0.00 | 89 | 1011.7 |
| 20260509161606 | 12 | 163 | 8.0 | 32.2 | 0.00 | 0.00 | 0.00 | 90 | 1011.8 |
| 20260509154602 | 13 | 98 | 4.8 | 30.6 | 0.00 | 0.00 | 0.00 | 93 | 1012.2 |
| 20260509153054 | 12 | 90 | 8.0 | 27.4 | 0.00 | 0.00 | 0.00 | 93 | 1012.1 |
| 20260509151555 | 13 | 161 | 6.4 | 29.0 | 0.00 | 0.00 | 0.00 | 93 | 1012.5 |
| 20260509150053 | 13 | 157 | 11.3 | 30.6 | 0.00 | 0.00 | 0.00 | 94 | 1012.8 |
| 20260509144610 | 13 | 162 | 4.8 | 27.4 | 0.00 | 0.00 | 0.00 | 95 | 1013.0 |
| 20260509143055 | 13 | 175 | 12.9 | 32.2 | 0.00 | 0.00 | 0.00 | 94 | 1013.0 |
| 20260509141600 | 13 | 134 | 9.7 | 37.0 | 0.00 | 0.00 | 0.00 | 95 | 1013.0 |
| 20260509140113 | 13 | 161 | 12.9 | 29.0 | 0.00 | 0.00 | 0.00 | 94 | 1013.2 |
| 20260509134557 | 13 | 131 | 12.9 | 32.2 | 0.00 | 0.00 | 0.00 | 93 | 1013.4 |
| 20260509133103 | 14 | 138 | 11.3 | 38.6 | 0.00 | 0.00 | 0.00 | 93 | 1013.5 |
| 20260509131559 | 15 | 92 | 11.3 | 24.1 | 0.00 | 0.00 | 0.00 | 92 | 1013.9 |
| 20260509130107 | 15 | 134 | 11.3 | 30.6 | 0.00 | 0.00 | 0.00 | 91 | 1014.0 |
| 20260509124609 | 15 | 341 | 8.0 | 41.8 | 0.00 | 0.00 | 0.00 | 93 | 1013.8 |
| 20260509123059 | 15 | 49 | 11.3 | 32.2 | 0.00 | 0.00 | 0.00 | 94 | 1013.7 |
| 20260509121617 | 15 | 42 | 16.1 | 32.2 | 0.00 | 0.00 | 0.00 | 96 | 1013.7 |
| 20260509120057 | 15 | 312 | 6.4 | 35.4 | 0.00 | 0.00 | 0.00 | 99 | 1013.8 |
| 20260509114602 | 15 | 146 | 9.7 | 25.7 | 0.00 | 0.00 | 0.00 | 98 | 1014.2 |
| 20260509113058 | 15 | 138 | 8.0 | 27.4 | 0.00 | 0.00 | 0.00 | 98 | 1014.1 |
| 20260509111604 | 15 | 278 | 11.3 | 22.5 | 0.00 | 0.00 | 0.00 | 99 | 1014.6 |
| 20260509110056 | 14 | 92 | 14.5 | 32.2 | 0.00 | 0.00 | 0.00 | 99 | 1014.3 |
| 20260509104556 | 14 | 102 | 12.9 | 29.0 | 0.00 | 0.00 | 0.00 | 98 | 1014.6 |
| 20260509103055 | 15 | 81 | 11.3 | 29.0 | 0.00 | 0.00 | 0.00 | 99 | 1014.4 |
| 20260509101555 | 14 | 43 | 12.9 | 38.6 | 0.00 | 0.00 | 0.00 | 99 | 1014.2 |
| 20260509100055 | 13 | 44 | 4.8 | 27.4 | 0.00 | 0.00 | 0.00 | 100 | 1014.3 |
| 20260509094557 | 12 | 249 | 6.4 | 22.5 | 0.00 | 0.00 | 0.00 | 100 | 1014.6 |
| 20260509093057 | 12 | 141 | 8.0 | 29.0 | 0.00 | 0.00 | 0.00 | 100 | 1014.3 |
| 20260509091558 | 12 | 148 | 9.7 | 29.0 | 0.00 | 0.00 | 0.00 | 100 | 1014.1 |
| 20260509090106 | 12 | 107 | 9.7 | 24.1 | 0.00 | 0.00 | 0.00 | 100 | 1014.5 |
| 20260509084600 | 12 | 78 | 11.3 | 20.9 | 0.00 | 0.00 | 0.00 | 100 | 1014.4 |
| 20260509083102 | 12 | 112 | 6.4 | 27.4 | 0.00 | 0.00 | 0.00 | 100 | 1014.4 |
| 20260509081557 | 12 | 147 | 8.0 | 19.3 | 0.00 | 0.00 | 0.00 | 100 | 1014.6 |
| 20260509080100 | 12 | 103 | 9.7 | 27.4 | 0.00 | 0.00 | 0.00 | 100 | 1014.7 |
| 20260509074601 | 12 | 123 | 8.0 | 22.5 | 0.00 | 0.00 | 0.00 | 100 | 1015.0 |
| 20260509073056 | 12 | 98 | 8.0 | 25.7 | 0.00 | 0.00 | 0.00 | 100 | 1015.2 |
| 20260509071555 | 12 | 111 | 8.0 | 25.7 | 0.00 | 0.00 | 0.00 | 100 | 1015.0 |
| 20260509070058 | 11 | 187 | 9.7 | 22.5 | 0.00 | 0.00 | 0.00 | 100 | 1015.3 |
| 20260509064556 | 11 | 129 | 9.7 | 27.4 | 0.00 | 0.00 | 0.00 | 100 | 1015.1 |
| 20260509063103 | 11 | 107 | 6.4 | 17.7 | 0.00 | 0.00 | 0.00 | 100 | 1015.1 |
| 20260509061600 | 11 | 84 | 9.7 | 29.0 | 0.00 | 0.00 | 0.00 | 100 | 1015.0 |
| 20260509060104 | 11 | 127 | 6.4 | 29.0 | 0.00 | 0.00 | 0.00 | 100 | 1014.7 |
| 20260509054606 | 11 | 175 | 6.4 | 25.7 | 0.00 | 0.00 | 0.00 | 100 | 1014.7 |
| 20260509053134 | 11 | 67 | 4.8 | 17.7 | 0.00 | 0.00 | 0.00 | 100 | 1014.6 |
| 20260509051611 | 11 | 92 | 4.8 | 24.1 | 0.00 | 0.00 | 0.00 | 100 | 1014.6 |
| 20260509050056 | 11 | 165 | 6.4 | 19.3 | 0.00 | 0.00 | 0.00 | 100 | 1014.5 |
| 20260509044555 | 11 | 169 | 4.8 | 19.3 | 0.00 | 0.00 | 0.00 | 100 | 1014.6 |
| 20260509043105 | 10 | 161 | 4.8 | 14.5 | 0.00 | 0.00 | 0.00 | 100 | 1014.3 |
| 20260509041603 | 10 | 0 | 3.2 | 14.5 | 0.00 | 0.00 | 0.00 | 100 | 1014.5 |
| 20260509040114 | 10 | 141 | 3.2 | 19.3 | 0.00 | 0.00 | 0.00 | 100 | 1014.6 |
| 20260509034605 | 10 | 164 | 1.6 | 20.9 | 0.00 | 0.00 | 0.00 | 100 | 1014.8 |
| 20260509033056 | 10 | 175 | 6.4 | 14.5 | 0.00 | 0.00 | 0.00 | 100 | 1014.8 |
| 20260509031606 | 10 | 61 | 6.4 | 17.7 | 0.00 | 0.00 | 0.00 | 100 | 1014.8 |
| 20260509030055 | 10 | 142 | 6.4 | 24.1 | 0.00 | 0.00 | 0.00 | 100 | 1014.7 |
| 20260509024555 | 10 | 155 | 4.8 | 20.9 | 0.00 | 0.00 | 0.00 | 100 | 1014.8 |
| 20260509023054 | 10 | 123 | 3.2 | 20.9 | 0.00 | 0.00 | 0.00 | 100 | 1014.9 |
| 20260509021555 | 10 | 90 | 6.4 | 19.3 | 0.00 | 0.00 | 0.00 | 100 | 1014.6 |
| 20260509020056 | 10 | 80 | 6.4 | 20.9 | 0.00 | 0.00 | 0.00 | 100 | 1014.9 |